Location: Bats
(43.6587°N, 0.4584°W)
Time: 19:37:39
(UTC+00:00)

NOSS 2-3 (E) - Pass Details

Date: 12 January 2026
Orbit: 492 x 1706 km, 63.3° (Epoch: 24 April)

Event Time Altitude Azimuth Distance (km) Brightness Sun altitude
Rises 17:52:05 0° 325° (NW) 3,069 7.3 -11.6°
Reaches altitude 10° 17:54:10 10° 328° (NNW) 2,276 6.6 -11.9°
Maximum altitude 17:59:24 69° 52° (NE) 978 4.3 -12.8°
Drops below altitude 10° 18:06:31 10° 136° (SE) 3,059 6.8 -14.0°
Sets 18:09:41 0° 138° (SE) 4,209 7.6 -14.6°
